Tracking 17782 objects as of 26-July-2016
HD Live streaming from Space Station
objects crossing your sky now

COSMOS 482 DESCENT CRAFT

Track COSMOS 482 DESCENT CRAFT now!
10-day predictions
COSMOS 482 DESCENT CRAFT is classified as:


NORAD ID: 6073
Int'l Code: 1972-023E
Perigee: 210.7 km
Apogee: 2,747.3 km
Inclination: 52.1 °
Period: 115.4 minutes
Semi major axis: 7850 km
RCS: 0.7153 m2 (medium)
Launch date: March 31, 1972
Source: Commonwealth of Independent States (former USSR) (CIS)
Launch site: TYURATAM MISSILE AND SPACE COMPLEX (TTMTR)
Your satellite tracking list
Your tracking list is empty





NASA's NSSDC Master Catalog

Two Line Element Set (TLE):
1 06073U 72023E   16208.04022016  .00013311  44503-5  70624-4 0  9995
2 06073  52.0749  49.0259 1615686 272.7805  69.0010 12.48239519320058
Source of the keplerian elements: AFSPC

N2YO: 744